Location: Shepherdstown, WV
(39.4326°N, 77.8042°W)
Time: 17:50:58
(UTC-04:00)

X-37B - Pass Details

Date: 29 June 2021
Orbit: 383 x 392 km, 45.0° (Epoch: 01 July)

Event Time Altitude Azimuth Distance (km) Brightness Sun altitude
Rises 21:39:16 0° 282° (WNW) 2,257 5.7 -9.7°
Reaches altitude 10° 21:41:31 10° 295° (WNW) 1,403 4.8 -10.0°
Maximum altitude 21:44:18 28° 357° (N) 757 2.6 -10.4°
Drops below altitude 10° 21:47:05 10° 59° (ENE) 1,402 3.2 -10.8°
Enters shadow 21:49:03 - 70° (ENE) 2,149 4.1 -11.1°
